Talkeetna, AK

4:11 PM AKDT on July 24, 2017 (GMT -0800)
Talkeetna

Weather History for PATK - November, 2012

Change the Weather History Date:

Saturday, November 17, 2012

  Actual Average Record
Temperature  
Mean Temperature 13 °F -  
Max Temperature 19 °F 24 °F 42 °F (2014)
Min Temperature 7 °F 7 °F -41 °F (1956)
Degree Days  
Heating Degree Days 52    
Moisture  
Dew Point -2 °F    
Average Humidity 49    
Maximum Humidity 73    
Minimum Humidity 34    
Precipitation  
Precipitation 0.00 in - - ()
Sea Level Pressure  
Sea Level Pressure 29.27 in    
Wind  
Wind Speed 9 mph (NNE)    
Max Wind Speed 15 mph    
Max Gust Speed 25 mph    
Visibility 10 miles    
Events      
Averages and records for this station are not official NWS values.
T = Trace of Precipitation, MM = Missing Value Source: NWS Daily Summary

Daily Weather History Graph

Daily Weather History Graph

Search for Another Location

Airport or City:

Trip Planner

Search our weather history database for the weather conditions in past years. The results will help you decide how hot, cold, wet, or windy it might be!

Date:

Astronomy

Nov. 17, 2012 Rise Set
Actual Time 9:21 AM AKST 4:08 PM AKST
Civil Twilight 8:26 AM AKST 5:03 PM AKST
Nautical Twilight 7:29 AM AKST 6:00 PM AKST
Astronomical Twilight 6:35 AM AKST 6:54 PM AKST
Moon 1:10 PM AKST (11/17) 8:38 PM AKST (11/17)
Length of Visible Light 8h 37m
Length of Day
6h 46m
Waxing Crescent, 21% of the Moon is Illuminated
Nov 17
Waxing Crescent
Nov 20
First Quarter
Nov 28
Full
Dec 6
Last Quarter
Dec 12
New

Hourly Weather History & Observations

Time (AKST) Temp. Windchill Dew Point Humidity Pressure Visibility Wind Dir Wind Speed Gust Speed Precip Events Conditions
12:53 AM 19.9 °F 6.7 °F -4.0 °F 35% 29.50 in 10.0 mi NNE 13.8 mph 23.0 mph N/A   Clear
1:53 AM 19.0 °F 5.0 °F -5.1 °F 34% 29.48 in 10.0 mi NNE 15.0 mph 25.3 mph N/A   Clear
3:53 AM 17.1 °F 4.3 °F -5.1 °F 37% 29.44 in 10.0 mi North 11.5 mph 17.3 mph N/A   Clear
4:53 AM 17.1 °F 6.6 °F -5.1 °F 37% 29.42 in 10.0 mi NNE 8.1 mph 19.6 mph N/A   Clear
5:53 AM 15.1 °F 4.2 °F -5.1 °F 41% 29.40 in 10.0 mi North 8.1 mph 16.1 mph N/A   Clear
6:53 AM 15.1 °F 3.3 °F -5.1 °F 41% 29.38 in 10.0 mi North 9.2 mph - N/A   Clear
7:53 AM 16.0 °F 6.3 °F -4.0 °F 41% 29.35 in 10.0 mi Variable 6.9 mph - N/A   Mostly Cloudy
8:53 AM 17.1 °F 8.7 °F -2.9 °F 41% 29.34 in 10.0 mi North 5.8 mph - N/A   Overcast
9:53 AM 17.1 °F 5.8 °F -2.0 °F 43% 29.31 in 10.0 mi North 9.2 mph - N/A   Mostly Cloudy
10:53 AM 18.0 °F 7.7 °F -0.9 °F 44% 29.28 in 10.0 mi North 8.1 mph - N/A   Mostly Cloudy
11:53 AM 19.0 °F 9.0 °F -0.0 °F 43% 29.26 in 10.0 mi North 8.1 mph - N/A   Overcast
12:53 PM 19.0 °F 8.2 °F -0.9 °F 42% 29.24 in 10.0 mi North 9.2 mph - N/A   Overcast
1:53 PM 19.9 °F 10.1 °F -0.9 °F 40% 29.21 in 10.0 mi North 8.1 mph - N/A   Overcast
2:53 PM 19.0 °F 8.2 °F -0.9 °F 42% 29.18 in 10.0 mi North 9.2 mph - N/A   Mostly Cloudy
3:53 PM 18.0 °F 12.7 °F -0.9 °F 44% 29.18 in 10.0 mi Variable 3.5 mph - N/A   Mostly Cloudy
4:53 PM 14.0 °F - -0.9 °F 52% 29.17 in 10.0 mi Calm Calm - N/A   Overcast
5:53 PM 12.9 °F - 1.0 °F 59% 29.16 in 10.0 mi Calm Calm - N/A   Scattered Clouds
6:53 PM 10.9 °F - 1.0 °F 64% 29.16 in 10.0 mi Calm Calm - N/A   Overcast
7:53 PM 9.0 °F - 1.0 °F 70% 29.15 in 10.0 mi Calm Calm - N/A   Partly Cloudy
8:53 PM 7.0 °F - -0.0 °F 73% 29.15 in 10.0 mi Calm Calm - N/A   Partly Cloudy
9:53 PM 8.1 °F 1.4 °F -0.9 °F 67% 29.14 in 10.0 mi ENE 3.5 mph - N/A   Clear
10:53 PM 8.1 °F 1.4 °F -0.9 °F 67% 29.13 in 10.0 mi ENE 3.5 mph - N/A   Clear
11:53 PM 7.0 °F -1.7 °F -0.0 °F 73% 29.13 in 10.0 mi ENE 4.6 mph - N/A   Clear